Location: Herksen
(52.4316°N, 6.1319°E)
Time: 11:02:36
(UTC+00:00)

GP-B - Pass Details

Date: 15 May 2026
Orbit: 617 x 621 km, 89.9° (Epoch: 5 June)

Event Time Altitude Azimuth Distance (km) Brightness Sun altitude
Rises 22:28:16 0° 8° (N) 2,908 7.8 -17.2°
Reaches altitude 10° 22:30:41 10° 18° (NNE) 1,996 6.5 -17.3°
Maximum altitude 22:34:38 32° 82° (E) 1,065 4.2 -17.4°
Enters shadow 22:36:13 25° 121° (ESE) 1,261 4.2 -17.5°
